Weather Service Report


124 
ASUS44 KLIX 251113
RWRLA 
LOUISIANA WEATHER ROUNDUP
NATIONAL WEATHER SERVICE NEW ORLEANS LA
500 AM CST SAT FEB 25 2017

NOTE: "FAIR" INDICATES FEW OR NO CLOUDS BELOW 12,000 FEET WITH NO
      SIGNIFICANT WEATHER AND/OR OBSTRUCTIONS TO VISIBILITY.
      SKY/WX - SKY CONDITION AND SIGNIFICANT WEATHER.
      TMP - AIR TEMPERATURE.    DP   - DEWPOINT TEMPERATURE.
      RH  - RELATIVE HUMIDITY.  PRES - PRESSURE.
      HX  - HEAT INDEX.         WCI  - WIND CHILL INDEX.

*  THESE STATIONS ARE NOT NWS OR FAA STATIONS AND ARE NOT UNDER
   NWS QUALITY CONTROL.

LAZ040-048-061>063-065-066-069-251200-
SOUTHEAST LOUISIANA
  
CITY           SKY/WX    TMP DP  RH WIND       PRES   REMARKS
N.O. AUDUBON   NOT AVBL                                               
N.O. INTL ARPT PTCLDY    63  42  46 N13G23    29.95R                  
N.O. LAKEFRONT CLOUDY    64  51  62 N18G25    29.95R                  
N.O. DOWNTOWN*   N/A     64  47  53 N8        29.95R                  
RESERVE*       FAIR      61  38  43 N13G22    29.96R                  
SLIDELL        MOCLDY    61  45  55 N9        29.94R                  
BATON ROUGE    CLEAR     58  39  49 N7        29.97R                  
BOOTHVILLE     MOCLDY    64  61  90 N16G23    29.90R                  
BELLE CHASSE   CLEAR     63  48  58 N12G20    29.93R                  
BOGALUSA*      PTSUNNY   60  37  43 N6        29.97R                  
GALLIANO*      SUNNY     61  50  67 N15G22    29.93R                  
NEW ROADS*     FAIR      53  37  55 N7        29.99R                  
GONZALES*      FAIR      60  41  50 N7        29.96R                  
HAMMOND*       CLEAR     55  30  38 N8        29.97R                  
HOUMA*         PTCLDY    61  49  64 N17       29.94R                  
PORT FOURCHON* MOSUNNY   66  57  72 N17G26    29.92R                  

$$

LAZ041-044-053-054-251200-
SOUTHWEST LOUISIANA
  
CITY           SKY/WX    TMP DP  RH WIND       PRES   REMARKS
LAKE CHARLES   CLEAR     52  37  56 N8        30.01R                  
LAFAYETTE      CLEAR     56  42  59 N8        29.98R                  
PATTERSON      CLEAR     60  45  57 N10       29.96R                  
SALT POINT       N/A     60  45  57 N7        29.94R                  
NEW IBERIA     CLEAR     55  40  56 N9        29.97R                  
CHENAULT AIRPK CLEAR     50  37  61 N6        30.02R                  

$$

LAZ027-028-251200-
CENTRAL LOUISIANA
  
CITY           SKY/WX    TMP DP  RH WIND       PRES   REMARKS
FORT POLK      CLEAR     48  33  55 N9        30.03R                  
ALEXANDRIA INT CLEAR     48  35  60 N9        30.02R                  
ALEXANDRIA     CLEAR     49  35  58 VRB7      30.03R                  

$$

LAZ001-002-251200-
NORTHWEST LOUISIANA
  
CITY           SKY/WX    TMP DP  RH WIND       PRES   REMARKS
SHREVEPORT     CLEAR     44  27  51 N13       30.09R                  
BARKSDALE AFB  CLEAR     42  24  49 N13       30.10R                  
DTN SHREVEPORT CLEAR     42  28  57 N8        30.10R                  

$$

LAZ014-016-251200-
NORTHEAST LOUISIANA
  
CITY           SKY/WX    TMP DP  RH WIND       PRES   REMARKS
MONROE         CLEAR     46  30  53 N13       30.05R                  
TALLULAH       CLEAR     47  33  58 NW7       30.03R                  

$$

  


125 
ASUS44 KLIX 251113
RWRLIX
NEW ORLEANS REGIONAL WEATHER ROUNDUP
NATIONAL WEATHER SERVICE NEW ORLEANS LA
500 AM CST SAT FEB 25 2017

NOTE: "FAIR" INDICATES FEW OR NO CLOUDS BELOW 12,000 FEET WITH NO
      SIGNIFICANT WEATHER AND/OR OBSTRUCTIONS TO VISIBILITY.
      SKY/WX - SKY CONDITION AND SIGNIFICANT WEATHER.
      TMP - AIR TEMPERATURE.     DP    - DEWPOINT TEMPERATURE.
      RH  - RELATIVE HUMIDITY.   PRES  - PRESSURE.
      HI  - HEAT INDEX.          WCI   - WIND CHILL INDEX.

*  THESE STATIONS ARE NOT NWS OR FAA STATIONS AND ARE NOT UNDER
   NWS QUALITY CONTROL. 

LAZ038-040-048-061>063-065>067-069-251200-
SOUTHEAST LOUISIANA
  
CITY           SKY/WX    TMP DP  RH WIND       PRES   REMARKS
N.O. AUDUBON   NOT AVBL                                               
N.O. INTL ARPT PTCLDY    63  42  46 N13G23    29.95R                  
N.O. LAKEFRONT CLOUDY    64  51  62 N18G25    29.95R                  
N.O. DOWNTOWN*   N/A     64  47  53 N8        29.95R                  
RESERVE*         N/A     61  38  43 N13G22    29.96R                  
SLIDELL        MOCLDY    61  45  55 N9        29.94R                  
BATON ROUGE    CLEAR     58  39  49 N7        29.97R                  
BOOTHVILLE     MOCLDY    64  61  90 N16G23    29.90R                  
BELLE CHASSE   CLEAR     63  48  58 N12G20    29.93R                  
BOGALUSA*      PTSUNNY   60  37  43 N6        29.97R                  
GALLIANO*      SUNNY     61  50  67 N15G22    29.93R                  
NEW ROADS*       N/A     53  37  55 N7        29.99R                  
GONZALES*        N/A     60  41  50 N7        29.96R                  
HAMMOND*       CLEAR     55  30  38 N8        29.97R                  
HOUMA*         PTCLDY    61  49  64 N17       29.94R                  
PORT FOURCHON* MOSUNNY   66  57  72 N17G26    29.92R                  

$$

MSZ070-080>082-251200-
SOUTHERN MISSISSIPPI
  
CITY           SKY/WX    TMP DP  RH WIND       PRES   REMARKS
MCCOMB         CLEAR     53  25  33 N6        29.97R                  
GULFPORT       MOCLDY    63  51  65 N13G24    29.91R                  
BILOXI         PTCLDY    63  45  51 N10G16    29.91R                  
PASCAGOULA     PTCLDY    64  53  67 N9G20     29.90R                  

$$

COASTAL OBSERVATIONS
LAKE AND NEARSHORE STATIONS
  
STATION/POSITION TIME  TEMP    WIND        PRES    WAVE
                       AIR SEA DIR/SP/G            HT/PER
                 (UTC) (F)     (DEG/KT/KT) (MB)    (FT/S)
PASCAGOULA       1048   65     340/ 13/ 18 1011.8
WAVELAND YACHT   1048   64 68  350/ 20/ 24 1013.0
GRAND ISLE       1048   67 69  350/ 20/ 23 1012.9
SOUTHWEST PASS   1048          270/  6/  6   N/A
NEW CANAL        1048   64 67  360/ 18/ 23 1013.2
SHELL BEACH      1048   66 69  340/ 22/ 27 1013.2

OFFSHORE STATIONS
  
STATION/POSITION TIME  TEMP    WIND        PRES    WAVE
                       AIR SEA DIR/SP/G            HT/PER
                 (UTC) (F)     (DEG/KT/KT) (MB)    (FT/S)

$$

  

Return to Home page


Western Regional Climate Center, wrcc@dri.edu